NOAA 16 DEB, 42375

Orbit data source: Space-Track

NOAA 16 DEB, 42375 is space debris in SSO originally from a launch on Thu, 21 Sep 2000 UTC launched from the Air Force Western Test Range (AFWTR). Debris objects in space refer to the collection of defunct objects orbiting the Earth. Examples of debris include non-operational satellites, rocket bodies, and fragments generated from explosions, collisions, or faulty payload assembly.

Loading next visibility...
Identifier
42375, 2000-055RT
Orbit
SSO
Country
Flag of USUS
Related business
Manufacturer
Unknown
Mission
Spacecraft
Bus & Motor
Unknown
Mass
Unknown
Launch date (UTC)
2000-09-21 (26 years ago)
Launch vehicle
Unknown
Launch site
Air Force Western Test Range (AFWTR)
Object type
Payload
Rocket body
Debris
Shape & HBR
Unknown shape, 0.1 m
Radar Cross Section
Medium (>0.1 m² and <1 m²)

Expand to show TLE details & history
Last TLE update: 9 hours ago

TLE from 9 hours ago
0 NOAA 16 DEB
1 42375U 00055RT  26236.42513768  .00002338  00000-0  93259-3 0  9993
2 42375  98.6631 309.5123 0003033 294.1303  65.9561 14.29487006536018
Epoch: 2026-08-24T10:12Z
TLE epoch observation values (Epoch: 2026-08-24T10:12:11.895Z)
Latitude
-0.00008°
Longitude
-176.24428°
Altitude
795.489 km
Speed
7.456 km/s
True Right ascension
20h 38m 02s
True Declination
0° 00' 00"
Sunlit
Object was in full shadow at epoch
Visualization orbit readout
Latitude
Unknown
Longitude
Unknown
Altitude
Unknown
Speed
Unknown
Apparent Right ascension
Unknown
Apparent Declination
Unknown
Sunlit
N/A
Visualization observer readout
Local Sidereal Time
10:21:47
Azimuth
Unknown
Elevation
Unknown
Doppler factor
Unknown
Orbital elements
Apogee altitude
792.764 km
Perigee altitude
788.415 km
Semi-major axis
7,168.727 km
Eccentricity
0.0003
Inclination
98.6631°
RAAN
309.5123°
Arg. of periapsis
294.1303°
True anomaly
65.98784°
Mean anomaly
65.9561°
Eccentric anomaly
65.97197°
Mean motion
3.57586 °/min
Orbital period
100.68 mins
BSTAR
0.00093259
Loading maneuver chart data...
Computing Atmospheric mass density...
Loading historical data...
Loading historical data...
Loading historical data...
Loading historical data...
Loading historical data...
Loading historical data...
Loading historical data...

Documentation

Showing up to 5 results
|